weather.gov     
National Weather Service

Terminal Aerodrome Forecast
NWS Homepage
This page is being discontinued on March 12, 2014.
The same data is available at this site. Please update your bookmarks.
Thank you, and we apologize for the inconvenience.
Please send an email to SR-SRH.Webmaster@noaa.gov with any concerns.


Current Version
Previous Version:    01  02  03  04  05  06  07  08  09  10  11  12  13  14  15  16  17  18  19  20  21  22  23  24  25  26  27  28  29  30  
   31  32  33  34  35  36  37  38  39  40  41  42  43  44  45  46  47  
[Printable]
204
FTUS41 KCTP 231148
TAFMDT
TAF
KMDT 231148Z 2312/2412 00000KT P6SM SCT100
     FM231400 18004KT P6SM SCT250
     FM240100 13007KT 5SM -RA BR SCT025 OVC050
     FM240300 14008G15KT 4SM -RA BR BKN015 OVC025 WS020/15040KT
     FM240600 19010KT 2SM -RA BR BKN009 OVC015 WS020/19045KT=


204
FTUS41 KCTP 231148
TAFMDT
TAF
KMDT 231148Z 2312/2412 00000KT P6SM SCT100
     FM231400 18004KT P6SM SCT250
     FM240100 13007KT 5SM -RA BR SCT025 OVC050
     FM240300 14008G15KT 4SM -RA BR BKN015 OVC025 WS020/15040KT
     FM240600 19010KT 2SM -RA BR BKN009 OVC015 WS020/19045KT=




U.S. Dept. of Commerce
NOAA National Weather Service
1325 East West Highway
Silver Spring, MD 20910
E-mail: w-nws.webmaster@noaa.gov
Page last modified: May 16, 2007
NATIONAL WEATHER SERVICE: for Safety, for Work, for Fun - FOR LIFE